Time,TemperatureF,DewpointF,PressureIn,WindDirection,WindDirectionDegrees,WindSpeedMPH,WindSpeedGustMPH,Humidity,HourlyPrecipIn,Conditions,Clouds,dailyrainin,SoftwareType,DateUTC
2013-10-19 00:00:00,61.6,61.6,17.72,NE,44,0.0,0.0,100,0.00,,,0.00,VWS V14.01,2013-10-19 04:00:00,
2013-10-19 00:03:00,61.6,61.6,17.72,NE,43,0.0,0.0,100,0.00,,,0.00,VWS V14.01,2013-10-19 04:03:00,
2013-10-19 00:08:00,61.6,61.6,17.72,NE,43,0.0,0.0,100,0.00,,,0.00,VWS V14.01,2013-10-19 04:08:00,
2013-10-19 00:10:00,61.4,61.4,17.72,NE,44,0.0,0.0,100,0.00,,,0.00,VWS V14.01,2013-10-19 04:10:00,
2013-10-19 00:13:00,61.4,61.4,17.72,NE,44,0.0,0.0,100,0.00,,,0.00,VWS V14.01,2013-10-19 04:13:00,
2013-10-19 00:18:00,61.2,61.2,17.72,NE,43,0.0,0.0,100,0.00,,,0.00,VWS V14.01,2013-10-19 04:18:00,
2013-10-19 00:23:00,61.2,61.2,17.72,NE,44,0.0,0.0,100,0.00,,,0.00,VWS V14.01,2013-10-19 04:23:00,
2013-10-19 00:28:00,61.4,61.4,17.72,NE,44,0.0,0.0,100,0.00,,,0.00,VWS V14.01,2013-10-19 04:28:00,
2013-10-19 00:33:00,61.4,61.4,17.72,NE,44,0.0,0.0,100,0.00,,,0.00,VWS V14.01,2013-10-19 04:33:00,
2013-10-19 00:38:00,61.4,61.4,17.72,NE,44,0.0,0.0,100,0.00,,,0.00,VWS V14.01,2013-10-19 04:38:00,
2013-10-19 00:40:00,61.4,61.4,17.72,NE,44,0.0,0.0,100,0.00,,,0.00,VWS V14.01,2013-10-19 04:40:00,
2013-10-19 00:43:00,61.6,61.6,17.72,NE,44,0.0,0.0,100,0.00,,,0.00,VWS V14.01,2013-10-19 04:43:00,
2013-10-19 00:48:00,61.6,61.6,17.72,NE,44,0.0,0.0,100,0.00,,,0.00,VWS V14.01,2013-10-19 04:48:00,
2013-10-19 00:50:00,61.6,61.6,17.72,NE,44,0.0,0.0,100,0.00,,,0.00,VWS V14.01,2013-10-19 04:50:00,
2013-10-19 00:53:00,61.6,61.6,17.72,NE,44,0.0,0.0,100,0.00,,,0.00,VWS V14.01,2013-10-19 04:53:00,
2013-10-19 00:58:00,61.6,61.6,17.72,NE,44,0.0,0.0,100,0.00,,,0.00,VWS V14.01,2013-10-19 04:58:00,
2013-10-19 01:00:00,61.6,61.6,17.72,NE,44,0.0,0.0,100,0.00,,,0.00,VWS V14.01,2013-10-19 05:00:00,
2013-10-19 01:03:00,61.6,61.6,17.72,NE,44,0.0,0.0,100,0.00,,,0.00,VWS V14.01,2013-10-19 05:03:00,
2013-10-19 01:08:00,61.6,61.6,17.72,NE,44,0.0,0.0,100,0.00,,,0.00,VWS V14.01,2013-10-19 05:08:00,
2013-10-19 01:13:00,61.2,61.2,17.72,NE,44,0.0,0.0,100,0.00,,,0.00,VWS V14.01,2013-10-19 05:13:00,
2013-10-19 01:18:00,61.1,61.1,17.72,NE,44,0.0,0.0,100,0.00,,,0.00,VWS V14.01,2013-10-19 05:18:00,
2013-10-19 01:23:00,60.9,60.9,17.72,NE,44,0.0,0.0,100,0.00,,,0.00,VWS V14.01,2013-10-19 05:23:00,
2013-10-19 01:28:00,60.9,60.9,17.72,NE,44,0.0,0.0,100,0.00,,,0.00,VWS V14.01,2013-10-19 05:28:00,
2013-10-19 01:30:00,60.9,60.9,17.72,NE,44,0.0,0.0,100,0.00,,,0.00,VWS V14.01,2013-10-19 05:30:00,
2013-10-19 01:33:00,60.9,60.9,17.72,NE,44,0.0,0.0,100,0.00,,,0.00,VWS V14.01,2013-10-19 05:33:00,
2013-10-19 01:38:00,60.9,60.9,17.72,NE,44,0.0,0.0,100,0.00,,,0.00,VWS V14.01,2013-10-19 05:38:00,
2013-10-19 01:43:00,60.9,60.9,17.72,NE,44,0.0,0.0,100,0.00,,,0.00,VWS V14.01,2013-10-19 05:43:00,
2013-10-19 01:48:00,60.9,60.9,17.72,NE,44,0.0,0.0,100,0.00,,,0.00,VWS V14.01,2013-10-19 05:48:00,
2013-10-19 01:50:00,60.9,60.9,17.72,NE,44,0.0,0.0,100,0.00,,,0.00,VWS V14.01,2013-10-19 05:50:00,
2013-10-19 01:53:00,60.9,60.9,17.72,NE,44,0.0,0.0,100,0.00,,,0.00,VWS V14.01,2013-10-19 05:53:00,
2013-10-19 01:58:00,60.9,60.9,17.72,NE,44,0.0,0.0,100,0.00,,,0.00,VWS V14.01,2013-10-19 05:58:00,
2013-10-19 02:00:00,60.9,60.9,17.72,NE,44,0.0,0.0,100,0.00,,,0.00,VWS V14.01,2013-10-19 06:00:00,
2013-10-19 02:03:00,60.3,60.3,17.72,NE,44,0.0,0.0,100,0.00,,,0.00,VWS V14.01,2013-10-19 06:03:00,
2013-10-19 02:08:00,60.3,60.3,17.72,NE,44,0.0,0.0,100,0.00,,,0.00,VWS V14.01,2013-10-19 06:08:00,
2013-10-19 02:10:00,60.3,60.3,17.72,NE,44,0.0,0.0,100,0.00,,,0.00,VWS V14.01,2013-10-19 06:10:00,
2013-10-19 02:13:00,60.3,60.3,17.72,NE,44,0.0,0.0,100,0.00,,,0.00,VWS V14.01,2013-10-19 06:13:00,
2013-10-19 02:18:00,60.3,60.3,17.72,NE,44,0.0,0.0,100,0.00,,,0.00,VWS V14.01,2013-10-19 06:18:00,
2013-10-19 02:20:00,60.3,60.3,17.72,NE,44,0.0,0.0,100,0.00,,,0.00,VWS V14.01,2013-10-19 06:20:00,
2013-10-19 02:23:00,60.3,60.3,17.72,NE,44,0.0,0.0,100,0.00,,,0.00,VWS V14.01,2013-10-19 06:23:00,
2013-10-19 02:28:00,60.0,60.0,17.72,NE,44,0.0,0.0,100,0.00,,,0.00,VWS V14.01,2013-10-19 06:28:00,
2013-10-19 02:33:00,60.0,60.0,17.72,NE,44,0.0,0.0,100,0.00,,,0.00,VWS V14.01,2013-10-19 06:33:00,
2013-10-19 02:38:00,60.2,60.2,17.72,NE,44,0.0,0.0,100,0.00,,,0.00,VWS V14.01,2013-10-19 06:38:00,
2013-10-19 02:40:00,60.2,60.2,17.72,NE,44,0.0,0.0,100,0.00,,,0.00,VWS V14.01,2013-10-19 06:40:00,
2013-10-19 02:43:00,60.2,60.2,17.72,NE,44,0.0,0.0,100,0.00,,,0.00,VWS V14.01,2013-10-19 06:43:00,
2013-10-19 02:48:00,60.2,60.2,17.72,NE,44,0.0,0.0,100,0.00,,,0.00,VWS V14.01,2013-10-19 06:48:00,
2013-10-19 02:53:00,60.3,60.3,17.72,NE,44,0.0,0.0,100,0.00,,,0.00,VWS V14.01,2013-10-19 06:53:00,
2013-10-19 02:58:00,60.3,60.3,17.72,NE,44,0.0,0.0,100,0.00,,,0.00,VWS V14.01,2013-10-19 06:58:00,
2013-10-19 03:00:00,60.3,60.3,17.72,NE,44,0.0,0.0,100,0.00,,,0.00,VWS V14.01,2013-10-19 07:00:00,
2013-10-19 03:08:00,60.5,60.5,17.72,NE,44,0.0,0.0,100,0.00,,,0.00,VWS V14.01,2013-10-19 07:08:00,
2013-10-19 03:10:00,60.5,60.5,17.72,NE,44,0.0,0.0,100,0.00,,,0.00,VWS V14.01,2013-10-19 07:10:00,
2013-10-19 03:13:00,60.7,60.7,17.72,NE,44,0.0,0.0,100,0.00,,,0.00,VWS V14.01,2013-10-19 07:13:00,
2013-10-19 03:18:00,60.7,60.7,17.72,NE,44,0.0,0.0,100,0.00,,,0.00,VWS V14.01,2013-10-19 07:18:00,
2013-10-19 03:23:00,60.7,60.7,17.72,NE,44,0.0,0.0,100,0.00,,,0.00,VWS V14.01,2013-10-19 07:23:00,
2013-10-19 03:28:00,60.5,60.5,17.72,NE,44,0.0,0.0,100,0.00,,,0.00,VWS V14.01,2013-10-19 07:28:00,
2013-10-19 03:30:00,60.5,60.5,17.72,NE,44,0.0,0.0,100,0.00,,,0.00,VWS V14.01,2013-10-19 07:30:00,
2013-10-19 03:33:00,60.5,60.5,17.72,NE,44,0.0,0.0,100,0.00,,,0.00,VWS V14.01,2013-10-19 07:33:00,
2013-10-19 03:38:00,60.3,60.3,17.72,NE,44,0.0,0.0,100,0.00,,,0.00,VWS V14.01,2013-10-19 07:38:00,
2013-10-19 03:43:00,60.3,60.3,17.72,NE,44,0.0,0.0,100,0.00,,,0.00,VWS V14.01,2013-10-19 07:43:00,
2013-10-19 03:48:00,60.3,60.3,17.72,NE,44,0.0,0.0,100,0.00,,,0.00,VWS V14.01,2013-10-19 07:48:00,
2013-10-19 03:50:00,60.3,60.3,17.72,NE,44,0.0,0.0,100,0.00,,,0.00,VWS V14.01,2013-10-19 07:50:00,
2013-10-19 03:58:00,60.3,60.3,17.72,NE,44,0.0,0.0,100,0.00,,,0.00,VWS V14.01,2013-10-19 07:58:00,
2013-10-19 04:00:00,60.3,60.3,17.72,NE,44,0.0,0.0,100,0.00,,,0.00,VWS V14.01,2013-10-19 08:00:00,
2013-10-19 04:03:00,60.3,60.3,17.72,NE,44,0.0,0.0,100,0.00,,,0.00,VWS V14.01,2013-10-19 08:03:00,
2013-10-19 04:08:00,60.3,60.3,17.72,NE,44,0.0,0.0,100,0.00,,,0.00,VWS V14.01,2013-10-19 08:08:00,
2013-10-19 04:10:00,60.3,60.3,17.72,NE,44,0.0,0.0,100,0.00,,,0.00,VWS V14.01,2013-10-19 08:10:00,
2013-10-19 04:13:00,60.2,60.2,17.72,NE,44,0.0,0.0,100,0.00,,,0.00,VWS V14.01,2013-10-19 08:13:00,
2013-10-19 04:18:00,60.0,60.0,17.72,NE,44,0.0,0.0,100,0.00,,,0.00,VWS V14.01,2013-10-19 08:18:00,
2013-10-19 04:20:00,60.0,60.0,17.72,NE,44,0.0,0.0,100,0.00,,,0.00,VWS V14.01,2013-10-19 08:20:00,
2013-10-19 04:28:00,59.6,59.6,17.72,NE,44,0.0,0.0,100,0.00,,,0.00,VWS V14.01,2013-10-19 08:28:00,
2013-10-19 04:30:00,59.6,59.6,17.72,NE,44,0.0,0.0,100,0.00,,,0.00,VWS V14.01,2013-10-19 08:30:00,
2013-10-19 04:33:00,59.6,59.6,17.72,NE,44,0.0,0.0,100,0.00,,,0.00,VWS V14.01,2013-10-19 08:33:00,
2013-10-19 04:38:00,59.4,59.4,17.72,NE,44,0.0,0.0,100,0.00,,,0.00,VWS V14.01,2013-10-19 08:38:00,
2013-10-19 04:40:00,59.4,59.4,17.72,NE,44,0.0,0.0,100,0.00,,,0.00,VWS V14.01,2013-10-19 08:40:00,
2013-10-19 04:43:00,59.4,59.4,17.72,NE,44,0.0,0.0,100,0.00,,,0.00,VWS V14.01,2013-10-19 08:43:00,
2013-10-19 04:48:00,59.1,59.1,17.72,NE,44,0.0,0.0,100,0.00,,,0.00,VWS V14.01,2013-10-19 08:48:00,
2013-10-19 04:50:00,59.1,59.1,17.72,NE,44,0.0,0.0,100,0.00,,,0.00,VWS V14.01,2013-10-19 08:50:00,
2013-10-19 04:53:00,59.1,59.1,17.72,NE,44,0.0,0.0,100,0.00,,,0.00,VWS V14.01,2013-10-19 08:53:00,
2013-10-19 04:58:00,59.1,59.1,17.72,NE,44,0.0,0.0,100,0.00,,,0.00,VWS V14.01,2013-10-19 08:58:00,
2013-10-19 05:00:00,59.1,59.1,17.72,NE,44,0.0,0.0,100,0.00,,,0.00,VWS V14.01,2013-10-19 09:00:00,
2013-10-19 05:03:00,58.5,58.5,17.72,NE,44,0.0,0.0,100,0.00,,,0.00,VWS V14.01,2013-10-19 09:03:00,
2013-10-19 05:08:00,58.5,58.5,17.72,NE,44,0.0,0.0,100,0.00,,,0.00,VWS V14.01,2013-10-19 09:08:00,
2013-10-19 05:10:00,58.5,58.5,17.72,NE,44,0.0,0.0,100,0.00,,,0.00,VWS V14.01,2013-10-19 09:10:00,
2013-10-19 05:19:00,58.4,58.4,17.72,NE,44,0.0,0.0,100,0.00,,,0.00,VWS V14.01,2013-10-19 09:19:00,
2013-10-19 05:24:00,58.4,58.4,17.72,NE,44,0.0,0.0,100,0.00,,,0.00,VWS V14.01,2013-10-19 09:24:00,
2013-10-19 05:29:00,58.4,58.4,17.72,NE,44,0.0,0.0,100,0.00,,,0.00,VWS V14.01,2013-10-19 09:29:00,
2013-10-19 05:30:00,58.4,58.4,17.72,NE,44,0.0,0.0,100,0.00,,,0.00,VWS V14.01,2013-10-19 09:30:00,
2013-10-19 05:34:00,58.4,58.4,17.72,NE,44,0.0,0.0,100,0.00,,,0.00,VWS V14.01,2013-10-19 09:34:00,
2013-10-19 05:39:00,58.4,58.4,17.72,NE,44,0.0,0.0,100,0.00,,,0.00,VWS V14.01,2013-10-19 09:39:00,
2013-10-19 05:40:00,58.4,58.4,17.72,NE,44,0.0,0.0,100,0.00,,,0.00,VWS V14.01,2013-10-19 09:40:00,
2013-10-19 05:44:00,58.4,58.4,17.72,NE,44,0.0,0.0,100,0.00,,,0.00,VWS V14.01,2013-10-19 09:44:00,
2013-10-19 05:49:00,58.4,58.4,17.72,NE,44,0.0,0.0,100,0.00,,,0.00,VWS V14.01,2013-10-19 09:49:00,
2013-10-19 05:50:00,58.2,58.2,17.72,NE,44,0.0,0.0,100,0.00,,,0.00,VWS V14.01,2013-10-19 09:50:00,
2013-10-19 05:54:00,58.2,58.2,17.72,NE,44,0.0,0.0,100,0.00,,,0.00,VWS V14.01,2013-10-19 09:54:00,
2013-10-19 05:59:00,58.2,58.2,17.72,NE,44,0.0,0.0,100,0.00,,,0.00,VWS V14.01,2013-10-19 09:59:00,
2013-10-19 06:00:00,58.2,58.2,17.72,NE,44,0.0,0.0,100,0.00,,,0.00,VWS V14.01,2013-10-19 10:00:00,
2013-10-19 06:04:00,58.0,58.0,17.72,NE,44,0.0,0.0,100,0.00,,,0.00,VWS V14.01,2013-10-19 10:04:00,
2013-10-19 06:09:00,58.0,58.0,17.72,NE,44,0.0,0.0,100,0.00,,,0.00,VWS V14.01,2013-10-19 10:09:00,
2013-10-19 06:10:00,58.0,58.0,17.72,NE,44,0.0,0.0,100,0.00,,,0.00,VWS V14.01,2013-10-19 10:10:00,
2013-10-19 06:14:00,58.0,58.0,17.72,NE,44,0.0,0.0,100,0.00,,,0.00,VWS V14.01,2013-10-19 10:14:00,
2013-10-19 06:19:00,57.8,57.8,17.72,NE,44,0.0,0.0,100,0.00,,,0.00,VWS V14.01,2013-10-19 10:19:00,
2013-10-19 06:20:00,57.8,57.8,17.72,NE,44,0.0,0.0,100,0.00,,,0.00,VWS V14.01,2013-10-19 10:20:00,
2013-10-19 06:24:00,57.8,57.8,17.72,NE,44,0.0,0.0,100,0.00,,,0.00,VWS V14.01,2013-10-19 10:24:00,
2013-10-19 06:29:00,57.8,57.8,17.72,NE,44,0.0,0.0,100,0.00,,,0.00,VWS V14.01,2013-10-19 10:29:00,
2013-10-19 06:30:00,57.8,57.8,17.72,NE,44,0.0,0.0,100,0.00,,,0.00,VWS V14.01,2013-10-19 10:30:00,
2013-10-19 06:34:00,57.8,57.8,17.72,NE,44,0.0,0.0,100,0.00,,,0.00,VWS V14.01,2013-10-19 10:34:00,
2013-10-19 06:39:00,57.8,57.8,17.72,NE,44,0.0,0.0,100,0.00,,,0.00,VWS V14.01,2013-10-19 10:39:00,
2013-10-19 06:44:00,57.8,57.8,17.72,NE,44,0.0,0.0,100,0.00,,,0.00,VWS V14.01,2013-10-19 10:44:00,
2013-10-19 06:49:00,57.6,57.6,17.72,NE,44,0.0,0.0,100,0.00,,,0.00,VWS V14.01,2013-10-19 10:49:00,
2013-10-19 06:50:00,57.6,57.6,17.72,NE,44,0.0,0.0,100,0.00,,,0.00,VWS V14.01,2013-10-19 10:50:00,
2013-10-19 06:54:00,57.5,57.5,17.72,NE,44,0.0,0.0,100,0.00,,,0.00,VWS V14.01,2013-10-19 10:54:00,
2013-10-19 06:59:00,57.5,57.5,17.72,NE,44,0.0,0.0,100,0.00,,,0.00,VWS V14.01,2013-10-19 10:59:00,
2013-10-19 07:00:00,57.5,57.5,17.72,NE,44,0.0,0.0,100,0.00,,,0.00,VWS V14.01,2013-10-19 11:00:00,
2013-10-19 07:04:00,57.1,57.1,17.72,NE,44,0.0,0.0,100,0.00,,,0.00,VWS V14.01,2013-10-19 11:04:00,
2013-10-19 07:09:00,57.1,57.1,17.72,NE,44,0.0,0.0,100,0.00,,,0.00,VWS V14.01,2013-10-19 11:09:00,
2013-10-19 07:10:00,57.1,57.1,17.72,NE,44,0.0,0.0,100,0.00,,,0.00,VWS V14.01,2013-10-19 11:10:00,
2013-10-19 07:14:00,57.1,57.1,17.72,NE,44,0.0,0.0,100,0.00,,,0.00,VWS V14.01,2013-10-19 11:14:00,
2013-10-19 07:19:00,57.1,57.1,17.72,NE,44,0.0,0.0,100,0.00,,,0.00,VWS V14.01,2013-10-19 11:19:00,
2013-10-19 07:20:00,57.1,57.1,17.72,NE,44,0.0,0.0,100,0.00,,,0.00,VWS V14.01,2013-10-19 11:20:00,
2013-10-19 07:24:00,57.3,57.3,17.72,NE,44,0.0,0.0,100,0.00,,,0.00,VWS V14.01,2013-10-19 11:24:00,
2013-10-19 07:29:00,57.3,57.3,17.72,NE,44,0.0,0.0,100,0.00,,,0.00,VWS V14.01,2013-10-19 11:29:00,
2013-10-19 07:30:00,57.3,57.3,17.72,NE,44,0.0,0.0,100,0.00,,,0.00,VWS V14.01,2013-10-19 11:30:00,
2013-10-19 07:39:00,57.3,57.3,17.72,NE,44,0.0,0.0,100,0.00,,,0.00,VWS V14.01,2013-10-19 11:39:00,
2013-10-19 07:44:00,57.3,57.3,17.72,NE,44,0.0,0.0,100,0.00,,,0.00,VWS V14.01,2013-10-19 11:44:00,
2013-10-19 07:49:00,57.3,57.3,17.72,NE,44,0.0,0.0,100,0.00,,,0.00,VWS V14.01,2013-10-19 11:49:00,
2013-10-19 07:50:00,57.3,57.3,17.72,NE,44,0.0,0.0,100,0.00,,,0.00,VWS V14.01,2013-10-19 11:50:00,
2013-10-19 07:54:00,57.3,57.3,17.72,NE,44,0.0,0.0,100,0.00,,,0.00,VWS V14.01,2013-10-19 11:54:00,
2013-10-19 07:59:00,57.3,57.3,17.72,NE,44,0.0,0.0,100,0.00,,,0.00,VWS V14.01,2013-10-19 11:59:00,
2013-10-19 08:00:00,57.3,57.3,17.72,NE,44,0.0,0.0,100,0.00,,,0.00,VWS V14.01,2013-10-19 12:00:00,
2013-10-19 08:04:00,57.5,57.5,17.72,NE,44,0.0,0.0,100,0.00,,,0.00,VWS V14.01,2013-10-19 12:04:00,
2013-10-19 08:09:00,57.5,57.5,17.72,NE,44,0.0,0.0,100,0.00,,,0.00,VWS V14.01,2013-10-19 12:09:00,
2013-10-19 08:10:00,57.5,57.5,17.72,NE,44,0.0,0.0,100,0.00,,,0.00,VWS V14.01,2013-10-19 12:10:00,
2013-10-19 08:14:00,57.6,57.6,17.72,NE,44,0.0,0.0,100,0.00,,,0.00,VWS V14.01,2013-10-19 12:14:00,
2013-10-19 08:19:00,57.6,57.6,17.72,NE,44,0.0,0.0,100,0.00,,,0.00,VWS V14.01,2013-10-19 12:19:00,
2013-10-19 08:20:00,57.6,57.6,17.72,NE,44,0.0,0.0,100,0.00,,,0.00,VWS V14.01,2013-10-19 12:20:00,
2013-10-19 08:24:00,57.6,57.6,17.72,NE,44,0.0,0.0,100,0.00,,,0.00,VWS V14.01,2013-10-19 12:24:00,
2013-10-19 08:29:00,58.0,58.0,17.72,NE,44,0.0,0.0,100,0.00,,,0.00,VWS V14.01,2013-10-19 12:29:00,
2013-10-19 08:34:00,58.0,58.0,17.72,NE,44,0.0,0.0,100,0.00,,,0.00,VWS V14.01,2013-10-19 12:34:00,
2013-10-19 08:39:00,58.2,58.2,17.72,NE,44,0.0,0.0,100,0.00,,,0.00,VWS V14.01,2013-10-19 12:39:00,
2013-10-19 08:40:00,58.2,58.2,17.72,NE,44,0.0,0.0,100,0.00,,,0.00,VWS V14.01,2013-10-19 12:40:00,
2013-10-19 08:49:00,58.4,58.4,17.72,NE,44,0.0,0.0,100,0.00,,,0.00,VWS V14.01,2013-10-19 12:49:00,
2013-10-19 08:54:00,58.4,58.4,17.72,NE,44,0.0,0.0,100,0.00,,,0.00,VWS V14.01,2013-10-19 12:54:00,
2013-10-19 08:59:00,58.7,58.7,17.72,NE,44,0.0,0.0,100,0.00,,,0.00,VWS V14.01,2013-10-19 12:59:00,
2013-10-19 09:00:00,58.7,58.7,17.72,NE,44,0.0,0.0,100,0.00,,,0.00,VWS V14.01,2013-10-19 13:00:00,
2013-10-19 09:04:00,58.9,58.9,17.72,NE,44,0.0,0.0,100,0.00,,,0.00,VWS V14.01,2013-10-19 13:04:00,
2013-10-19 09:09:00,59.1,59.1,17.72,NE,44,0.0,0.0,100,0.00,,,0.00,VWS V14.01,2013-10-19 13:09:00,
2013-10-19 09:10:00,59.1,59.1,17.72,NE,44,0.0,0.0,100,0.00,,,0.00,VWS V14.01,2013-10-19 13:10:00,
2013-10-19 09:14:00,59.1,59.1,17.72,NE,44,0.0,0.0,100,0.00,,,0.00,VWS V14.01,2013-10-19 13:14:00,
2013-10-19 09:19:00,59.6,59.6,17.72,NE,44,0.0,0.0,100,0.00,,,0.00,VWS V14.01,2013-10-19 13:19:00,
2013-10-19 09:20:00,59.6,59.6,17.72,NE,44,0.0,0.0,100,0.00,,,0.00,VWS V14.01,2013-10-19 13:20:00,
2013-10-19 09:24:00,59.8,59.8,17.72,NE,44,0.0,0.0,100,0.00,,,0.00,VWS V14.01,2013-10-19 13:24:00,
2013-10-19 09:29:00,60.2,60.2,17.72,NE,44,0.0,0.0,100,0.00,,,0.00,VWS V14.01,2013-10-19 13:29:00,
2013-10-19 09:30:00,60.2,60.2,17.72,NE,44,0.0,0.0,100,0.00,,,0.00,VWS V14.01,2013-10-19 13:30:00,
2013-10-19 09:34:00,60.2,60.2,17.72,ENE,77,3.1,3.1,100,0.00,,,0.00,VWS V14.01,2013-10-19 13:34:00,
2013-10-19 09:39:00,60.3,60.3,17.72,ENE,77,0.0,3.1,100,0.00,,,0.00,VWS V14.01,2013-10-19 13:39:00,
2013-10-19 09:44:00,60.3,60.3,17.72,ENE,77,3.1,3.1,100,0.00,,,0.00,VWS V14.01,2013-10-19 13:44:00,
2013-10-19 09:49:00,60.7,60.7,17.72,ENE,77,2.7,3.1,100,0.00,,,0.00,VWS V14.01,2013-10-19 13:49:00,
2013-10-19 09:50:00,60.7,60.7,17.72,ENE,77,0.0,3.1,100,0.00,,,0.00,VWS V14.01,2013-10-19 13:50:00,
2013-10-19 09:54:00,60.9,60.9,17.72,ENE,77,0.0,0.0,100,0.00,,,0.00,VWS V14.01,2013-10-19 13:54:00,
2013-10-19 09:59:00,61.2,61.2,17.72,ENE,77,0.0,0.0,100,0.00,,,0.00,VWS V14.01,2013-10-19 13:59:00,
2013-10-19 10:00:00,61.2,61.2,17.72,ENE,77,0.0,0.0,100,0.00,,,0.00,VWS V14.01,2013-10-19 14:00:00,
2013-10-19 10:04:00,61.4,61.4,17.72,ENE,77,0.0,0.0,100,0.00,,,0.00,VWS V14.01,2013-10-19 14:04:00,
2013-10-19 10:09:00,61.6,61.6,17.72,NNE,29,3.1,3.1,100,0.00,,,0.00,VWS V14.01,2013-10-19 14:09:00,
2013-10-19 10:10:00,61.6,61.6,17.72,NNE,29,3.1,3.1,100,0.00,,,0.00,VWS V14.01,2013-10-19 14:10:00,
2013-10-19 10:14:00,61.8,61.8,17.72,NNE,29,3.1,3.1,100,0.00,,,0.00,VWS V14.01,2013-10-19 14:14:00,
2013-10-19 10:19:00,62.0,62.0,17.72,NE,39,2.2,3.1,100,0.00,,,0.00,VWS V14.01,2013-10-19 14:19:00,
2013-10-19 10:20:00,62.0,62.0,17.72,NE,39,2.2,3.1,100,0.00,,,0.00,VWS V14.01,2013-10-19 14:20:00,
2013-10-19 10:30:00,62.9,62.9,17.72,NE,39,0.0,2.7,100,0.00,,,0.00,VWS V14.01,2013-10-19 14:30:00,
2013-10-19 10:35:00,62.9,62.9,17.72,ENE,71,0.0,0.0,100,0.00,,,0.00,VWS V14.01,2013-10-19 14:35:00,
2013-10-19 10:40:00,63.9,63.9,17.72,NE,40,3.1,3.1,100,0.00,,,0.00,VWS V14.01,2013-10-19 14:40:00,
2013-10-19 10:45:00,63.9,63.9,17.72,NE,35,3.1,3.1,100,0.00,,,0.00,VWS V14.01,2013-10-19 14:45:00,
2013-10-19 10:50:00,65.7,65.7,17.72,ENE,57,0.0,3.1,100,0.00,,,0.00,VWS V14.01,2013-10-19 14:50:00,
2013-10-19 10:55:00,66.3,61.7,17.72,ENE,73,2.7,3.1,85,0.00,,,0.00,VWS V14.01,2013-10-19 14:55:00,
2013-10-19 11:00:00,66.3,61.7,17.72,NE,45,3.1,3.6,85,0.00,,,0.00,VWS V14.01,2013-10-19 15:00:00,
2013-10-19 11:05:00,66.3,59.3,17.72,ENE,69,5.8,5.8,78,0.00,,,0.00,VWS V14.01,2013-10-19 15:05:00,
2013-10-19 11:10:00,66.3,59.3,17.72,ENE,62,4.0,4.0,78,0.00,,,0.00,VWS V14.01,2013-10-19 15:10:00,
2013-10-19 11:15:00,66.3,58.5,17.72,South,187,0.0,4.0,76,0.00,,,0.00,VWS V14.01,2013-10-19 15:15:00,
2013-10-19 11:20:00,66.6,60.5,17.72,NE,46,2.7,4.0,80,0.00,,,0.00,VWS V14.01,2013-10-19 15:20:00,
2013-10-19 11:25:00,66.6,58.8,17.72,ENE,60,4.0,4.0,76,0.00,,,0.00,VWS V14.01,2013-10-19 15:25:00,
2013-10-19 11:30:00,66.8,59.8,17.72,ESE,115,0.0,4.0,78,0.00,,,0.00,VWS V14.01,2013-10-19 15:30:00,
2013-10-19 11:35:00,67.0,59.2,17.72,SSW,193,4.9,4.9,76,0.00,,,0.00,VWS V14.01,2013-10-19 15:35:00,
2013-10-19 11:40:00,67.0,56.5,17.72,ESE,109,2.7,4.9,69,0.00,,,0.00,VWS V14.01,2013-10-19 15:40:00,
2013-10-19 11:45:00,66.8,58.1,17.72,ENE,71,0.0,3.1,74,0.00,,,0.00,VWS V14.01,2013-10-19 15:45:00,
2013-10-19 11:50:00,66.5,57.8,17.72,ENE,76,4.0,6.3,74,0.00,,,0.00,VWS V14.01,2013-10-19 15:50:00,
2013-10-19 11:55:00,66.1,58.3,17.72,East,81,3.6,4.0,76,0.00,,,0.00,VWS V14.01,2013-10-19 15:55:00,
2013-10-19 12:00:00,66.1,58.3,17.72,East,81,3.6,4.0,76,0.00,,,0.00,VWS V14.01,2013-10-19 16:00:00,
2013-10-19 12:05:00,66.3,58.5,17.72,East,91,4.0,4.9,76,0.00,,,0.00,VWS V14.01,2013-10-19 16:05:00,
2013-10-19 12:10:00,66.5,58.6,17.72,NE,51,4.0,4.0,76,0.00,,,0.00,VWS V14.01,2013-10-19 16:10:00,
2013-10-19 12:15:00,66.5,56.0,17.72,East,85,3.6,4.0,69,0.00,,,0.00,VWS V14.01,2013-10-19 16:15:00,
2013-10-19 12:20:00,66.5,56.0,17.72,East,79,3.6,4.0,69,0.00,,,0.00,VWS V14.01,2013-10-19 16:20:00,
2013-10-19 12:25:00,66.5,59.5,17.72,ENE,61,3.6,3.6,78,0.00,,,0.00,VWS V14.01,2013-10-19 16:25:00,
2013-10-19 12:29:00,66.5,58.6,17.72,ENE,76,6.3,6.3,76,0.00,,,0.00,VWS V14.01,2013-10-19 16:29:00,
2013-10-19 12:30:00,66.5,58.6,17.72,ENE,76,6.3,6.3,76,0.00,,,0.00,VWS V14.01,2013-10-19 16:30:00,
2013-10-19 12:35:00,66.3,60.1,17.72,NE,49,5.4,6.3,80,0.00,,,0.00,VWS V14.01,2013-10-19 16:35:00,
2013-10-19 12:40:00,66.5,59.5,17.72,East,79,0.0,6.3,78,0.00,,,0.00,VWS V14.01,2013-10-19 16:40:00,
2013-10-19 12:45:00,66.5,59.5,17.72,ENE,63,3.1,5.8,78,0.00,,,0.00,VWS V14.01,2013-10-19 16:45:00,
2013-10-19 12:50:00,66.6,59.6,17.72,ENE,74,5.8,5.8,78,0.00,,,0.00,VWS V14.01,2013-10-19 16:50:00,
2013-10-19 12:55:00,67.0,59.2,17.72,NE,53,5.4,5.8,76,0.00,,,0.00,VWS V14.01,2013-10-19 16:55:00,
2013-10-19 13:00:00,67.2,58.5,17.72,ENE,68,3.6,5.8,74,0.00,,,0.00,VWS V14.01,2013-10-19 17:00:00,
2013-10-19 13:05:00,67.4,59.5,17.72,ENE,62,3.1,3.6,76,0.00,,,0.00,VWS V14.01,2013-10-19 17:05:00,
2013-10-19 13:10:00,67.5,58.8,17.72,NE,48,4.0,4.0,74,0.00,,,0.00,VWS V14.01,2013-10-19 17:10:00,
2013-10-19 13:15:00,67.7,59.0,17.72,NE,46,2.7,6.3,74,0.00,,,0.00,VWS V14.01,2013-10-19 17:15:00,
2013-10-19 13:20:00,67.7,59.0,17.72,ENE,67,3.1,6.3,74,0.00,,,0.00,VWS V14.01,2013-10-19 17:20:00,
2013-10-19 13:25:00,68.3,58.6,17.72,ENE,71,3.1,3.1,71,0.00,,,0.00,VWS V14.01,2013-10-19 17:25:00,
2013-10-19 13:30:00,68.6,59.9,17.72,East,93,3.6,4.9,74,0.00,,,0.00,VWS V14.01,2013-10-19 17:30:00,
2013-10-19 13:35:00,68.6,59.9,17.72,East,80,5.4,5.4,74,0.00,,,0.00,VWS V14.01,2013-10-19 17:35:00,
2013-10-19 13:40:00,68.1,59.3,17.72,ENE,61,3.6,5.4,74,0.00,,,0.00,VWS V14.01,2013-10-19 17:40:00,
2013-10-19 13:45:00,67.7,59.0,17.72,East,80,3.6,3.6,74,0.00,,,0.00,VWS V14.01,2013-10-19 17:45:00,
2013-10-19 13:50:00,67.4,59.5,17.72,NE,52,2.7,2.7,76,0.00,,,0.00,VWS V14.01,2013-10-19 17:50:00,
2013-10-19 13:55:00,67.0,59.2,17.72,ENE,64,5.8,8.1,76,0.00,,,0.00,VWS V14.01,2013-10-19 17:55:00,
2013-10-19 14:00:00,67.0,59.2,17.72,NE,43,3.6,8.1,76,0.00,,,0.00,VWS V14.01,2013-10-19 18:00:00,
2013-10-19 14:05:00,67.0,59.2,17.72,ENE,76,3.6,5.8,76,0.00,,,0.00,VWS V14.01,2013-10-19 18:05:00,
2013-10-19 14:10:00,66.8,59.0,17.72,ESE,116,2.2,5.8,76,0.00,,,0.00,VWS V14.01,2013-10-19 18:10:00,
2013-10-19 14:15:00,66.6,59.6,17.72,SSE,151,3.6,3.6,78,0.00,,,0.00,VWS V14.01,2013-10-19 18:15:00,
2013-10-19 14:20:00,66.6,59.6,17.72,East,83,3.6,5.4,78,0.00,,,0.00,VWS V14.01,2013-10-19 18:20:00,
2013-10-19 14:25:00,66.5,59.5,17.72,East,92,8.1,8.1,78,0.00,,,0.00,VWS V14.01,2013-10-19 18:25:00,
2013-10-19 14:30:00,66.3,60.1,17.72,ENE,76,3.1,3.1,80,0.00,,,0.00,VWS V14.01,2013-10-19 18:30:00,
2013-10-19 14:35:00,66.3,60.1,17.72,ENE,69,2.7,4.0,80,0.00,,,0.00,VWS V14.01,2013-10-19 18:35:00,
2013-10-19 14:40:00,66.3,60.1,17.72,ENE,65,4.0,4.0,80,0.00,,,0.00,VWS V14.01,2013-10-19 18:40:00,
2013-10-19 14:45:00,66.3,60.9,17.72,ESE,108,3.1,4.0,83,0.00,,,0.00,VWS V14.01,2013-10-19 18:45:00,
2013-10-19 14:50:00,66.1,60.7,17.72,NE,55,2.2,4.0,83,0.00,,,0.00,VWS V14.01,2013-10-19 18:50:00,
2013-10-19 14:55:00,66.1,60.7,17.72,East,92,2.7,2.7,83,0.00,,,0.00,VWS V14.01,2013-10-19 18:55:00,
2013-10-19 15:00:00,66.1,59.1,17.72,East,90,3.1,5.4,78,0.00,,,0.00,VWS V14.01,2013-10-19 19:00:00,
2013-10-19 15:05:00,66.5,58.6,17.72,East,92,5.4,6.3,76,0.00,,,0.00,VWS V14.01,2013-10-19 19:05:00,
2013-10-19 15:10:00,66.5,58.6,17.72,ENE,73,2.7,6.3,76,0.00,,,0.00,VWS V14.01,2013-10-19 19:10:00,
2013-10-19 15:15:00,66.8,59.0,17.72,ENE,57,3.1,5.4,76,0.00,,,0.00,VWS V14.01,2013-10-19 19:15:00,
2013-10-19 15:20:00,67.0,58.3,17.72,ENE,70,2.2,5.4,74,0.00,,,0.00,VWS V14.01,2013-10-19 19:20:00,
2013-10-19 15:25:00,67.2,56.7,17.72,East,86,3.1,5.8,69,0.00,,,0.00,VWS V14.01,2013-10-19 19:25:00,
2013-10-19 15:30:00,67.2,56.7,17.72,ENE,72,2.7,5.8,69,0.00,,,0.00,VWS V14.01,2013-10-19 19:30:00,
2013-10-19 15:35:00,67.2,56.7,17.72,NE,55,4.5,4.5,69,0.00,,,0.00,VWS V14.01,2013-10-19 19:35:00,
2013-10-19 15:40:00,67.2,53.8,17.72,NE,45,4.9,5.4,62,0.00,,,0.00,VWS V14.01,2013-10-19 19:40:00,
2013-10-19 15:45:00,66.8,55.4,17.72,NE,55,0.0,4.9,67,0.00,,,0.00,VWS V14.01,2013-10-19 19:45:00,
2013-10-19 15:50:00,66.3,56.7,17.72,NE,51,3.6,3.6,71,0.00,,,0.00,VWS V14.01,2013-10-19 19:50:00,
2013-10-19 15:55:00,66.3,56.7,17.72,ENE,70,3.1,4.9,71,0.00,,,0.00,VWS V14.01,2013-10-19 19:55:00,
2013-10-19 16:00:00,66.3,56.7,17.72,East,90,2.7,4.9,71,0.00,,,0.00,VWS V14.01,2013-10-19 20:00:00,
2013-10-19 16:05:00,66.3,56.7,17.72,ENE,77,3.1,3.1,71,0.00,,,0.00,VWS V14.01,2013-10-19 20:05:00,
2013-10-19 16:10:00,65.6,57.8,17.72,SE,130,2.2,3.1,76,0.00,,,0.00,VWS V14.01,2013-10-19 20:10:00,
2013-10-19 16:15:00,65.7,57.9,17.72,ESE,114,0.0,2.2,76,0.00,,,0.00,VWS V14.01,2013-10-19 20:15:00,
2013-10-19 16:20:00,65.7,57.9,17.72,ENE,63,4.0,4.0,76,0.00,,,0.00,VWS V14.01,2013-10-19 20:20:00,
2013-10-19 16:26:00,65.7,57.9,17.72,ENE,62,3.1,4.0,76,0.00,,,0.00,VWS V14.01,2013-10-19 20:26:00,
2013-10-19 16:30:00,65.6,57.8,17.72,ENE,68,0.0,4.0,76,0.00,,,0.00,VWS V14.01,2013-10-19 20:30:00,
2013-10-19 16:31:00,65.6,58.6,17.72,ENE,68,0.0,0.0,78,0.00,,,0.00,VWS V14.01,2013-10-19 20:31:00,
2013-10-19 16:36:00,65.6,58.6,17.72,ENE,61,2.7,3.1,78,0.00,,,0.00,VWS V14.01,2013-10-19 20:36:00,
2013-10-19 16:40:00,65.4,58.4,17.72,WSW,256,2.2,3.1,78,0.00,,,0.00,VWS V14.01,2013-10-19 20:40:00,
2013-10-19 16:41:00,65.4,58.4,17.72,ENE,72,0.0,2.2,78,0.00,,,0.00,VWS V14.01,2013-10-19 20:41:00,
2013-10-19 16:46:00,65.2,58.2,17.72,NE,56,2.7,2.7,78,0.00,,,0.00,VWS V14.01,2013-10-19 20:46:00,
2013-10-19 16:50:00,65.2,58.2,17.72,NE,45,3.1,4.0,78,0.00,,,0.00,VWS V14.01,2013-10-19 20:50:00,
2013-10-19 16:51:00,65.2,58.2,17.72,NE,45,3.1,3.1,78,0.00,,,0.00,VWS V14.01,2013-10-19 20:51:00,
2013-10-19 16:56:00,64.8,57.9,17.72,ESE,103,6.7,6.7,78,0.00,,,0.00,VWS V14.01,2013-10-19 20:56:00,
2013-10-19 17:00:00,65.0,58.1,17.72,NE,51,3.1,6.7,78,0.00,,,0.00,VWS V14.01,2013-10-19 21:00:00,
2013-10-19 17:01:00,65.0,58.1,17.72,NE,51,3.1,3.1,78,0.00,,,0.00,VWS V14.01,2013-10-19 21:01:00,
2013-10-19 17:06:00,64.8,57.1,17.72,South,175,4.0,4.0,76,0.00,,,0.00,VWS V14.01,2013-10-19 21:06:00,
2013-10-19 17:10:00,64.8,54.4,17.72,ENE,69,3.1,4.0,69,0.00,,,0.00,VWS V14.01,2013-10-19 21:10:00,
2013-10-19 17:11:00,64.8,54.4,17.72,East,81,3.1,3.1,69,0.00,,,0.00,VWS V14.01,2013-10-19 21:11:00,
2013-10-19 17:16:00,64.8,54.4,17.72,NE,52,3.1,3.1,69,0.00,,,0.00,VWS V14.01,2013-10-19 21:16:00,
2013-10-19 17:21:00,64.7,56.0,17.72,ENE,75,3.6,3.6,74,0.00,,,0.00,VWS V14.01,2013-10-19 21:21:00,
2013-10-19 17:26:00,64.5,56.7,17.72,East,79,5.4,5.4,76,0.00,,,0.00,VWS V14.01,2013-10-19 21:26:00,
2013-10-19 17:30:00,64.5,56.7,17.72,ENE,75,4.0,5.4,76,0.00,,,0.00,VWS V14.01,2013-10-19 21:30:00,
2013-10-19 17:31:00,64.3,56.5,17.72,ENE,75,0.0,4.0,76,0.00,,,0.00,VWS V14.01,2013-10-19 21:31:00,
2013-10-19 17:36:00,64.3,56.5,17.72,ENE,75,0.0,4.0,76,0.00,,,0.00,VWS V14.01,2013-10-19 21:36:00,
2013-10-19 17:41:00,64.3,57.4,17.72,ENE,77,3.1,3.1,78,0.00,,,0.00,VWS V14.01,2013-10-19 21:41:00,
2013-10-19 17:46:00,64.3,57.4,17.72,ENE,77,0.0,3.1,78,0.00,,,0.00,VWS V14.01,2013-10-19 21:46:00,
2013-10-19 17:50:00,64.1,57.2,17.72,ENE,77,0.0,3.1,78,0.00,,,0.00,VWS V14.01,2013-10-19 21:50:00,
2013-10-19 17:56:00,64.1,57.2,17.72,ENE,78,0.0,3.6,78,0.00,,,0.00,VWS V14.01,2013-10-19 21:56:00,
2013-10-19 18:00:00,63.8,57.7,17.72,ENE,68,0.0,3.6,80,0.00,,,0.00,VWS V14.01,2013-10-19 22:00:00,
2013-10-19 18:01:00,63.8,57.7,17.72,ENE,68,0.0,0.0,80,0.00,,,0.00,VWS V14.01,2013-10-19 22:01:00,
2013-10-19 18:06:00,63.6,57.5,17.72,ENE,65,2.2,3.1,80,0.00,,,0.00,VWS V14.01,2013-10-19 22:06:00,
2013-10-19 18:10:00,63.6,57.5,17.72,ENE,65,2.2,3.1,80,0.00,,,0.00,VWS V14.01,2013-10-19 22:10:00,
2013-10-19 18:11:00,63.2,57.9,17.72,ENE,74,2.2,2.2,83,0.00,,,0.00,VWS V14.01,2013-10-19 22:11:00,
2013-10-19 18:16:00,62.9,58.3,17.72,ENE,67,2.7,3.1,85,0.00,,,0.00,VWS V14.01,2013-10-19 22:16:00,
2013-10-19 18:20:00,62.9,58.3,17.72,ENE,60,0.0,3.1,85,0.00,,,0.00,VWS V14.01,2013-10-19 22:20:00,
2013-10-19 18:21:00,62.9,58.3,17.72,ENE,60,0.0,0.0,85,0.00,,,0.00,VWS V14.01,2013-10-19 22:21:00,
2013-10-19 18:26:00,62.5,59.4,17.72,ENE,71,0.0,0.0,90,0.00,,,0.00,VWS V14.01,2013-10-19 22:26:00,
2013-10-19 18:30:00,62.3,59.3,17.72,ENE,71,0.0,0.0,90,0.00,,,0.00,VWS V14.01,2013-10-19 22:30:00,
2013-10-19 18:31:00,62.3,59.3,17.72,ENE,71,0.0,0.0,90,0.00,,,0.00,VWS V14.01,2013-10-19 22:31:00,
2013-10-19 18:36:00,62.3,59.3,17.72,ENE,71,0.0,0.0,90,0.00,,,0.00,VWS V14.01,2013-10-19 22:36:00,
2013-10-19 18:40:00,62.3,59.3,17.72,ENE,74,0.0,0.0,90,0.00,,,0.00,VWS V14.01,2013-10-19 22:40:00,
2013-10-19 18:41:00,62.0,58.9,17.72,ENE,74,0.0,0.0,90,0.00,,,0.00,VWS V14.01,2013-10-19 22:41:00,
2013-10-19 18:46:00,62.0,58.9,17.72,ENE,74,0.0,0.0,90,0.00,,,0.00,VWS V14.01,2013-10-19 22:46:00,
2013-10-19 18:51:00,61.6,60.0,17.72,ENE,74,0.0,0.0,94,0.00,,,0.00,VWS V14.01,2013-10-19 22:51:00,
2013-10-19 18:56:00,61.4,59.8,17.72,ENE,74,0.0,0.0,94,0.00,,,0.00,VWS V14.01,2013-10-19 22:56:00,
2013-10-19 19:00:00,61.2,60.3,17.72,ENE,74,0.0,0.0,97,0.00,,,0.00,VWS V14.01,2013-10-19 23:00:00,
2013-10-19 19:01:00,61.2,60.3,17.72,ENE,74,0.0,0.0,97,0.00,,,0.00,VWS V14.01,2013-10-19 23:01:00,
2013-10-19 19:10:00,61.1,61.1,17.72,ENE,74,0.0,0.0,100,0.00,,,0.00,VWS V14.01,2013-10-19 23:10:00,
2013-10-19 19:11:00,61.1,61.1,17.72,ENE,74,0.0,0.0,100,0.00,,,0.00,VWS V14.01,2013-10-19 23:11:00,
2013-10-19 19:16:00,60.5,60.5,17.72,ENE,57,0.0,0.0,100,0.00,,,0.00,VWS V14.01,2013-10-19 23:16:00,
2013-10-19 19:20:00,60.5,60.5,17.72,ENE,57,0.0,0.0,100,0.00,,,0.00,VWS V14.01,2013-10-19 23:20:00,
2013-10-19 19:21:00,60.5,60.5,17.72,ENE,57,0.0,0.0,100,0.00,,,0.00,VWS V14.01,2013-10-19 23:21:00,
2013-10-19 19:26:00,60.2,60.2,17.72,ENE,57,0.0,0.0,100,0.00,,,0.00,VWS V14.01,2013-10-19 23:26:00,
2013-10-19 19:31:00,60.2,60.2,17.72,ENE,57,0.0,0.0,100,0.00,,,0.00,VWS V14.01,2013-10-19 23:31:00,
2013-10-19 19:36:00,60.0,60.0,17.72,SE,126,0.0,0.0,100,0.00,,,0.00,VWS V14.01,2013-10-19 23:36:00,
2013-10-19 19:40:00,60.0,60.0,17.72,SE,145,0.0,0.0,100,0.00,,,0.00,VWS V14.01,2013-10-19 23:40:00,
2013-10-19 19:41:00,60.0,60.0,17.72,SE,145,0.0,0.0,100,0.00,,,0.00,VWS V14.01,2013-10-19 23:41:00,
2013-10-19 19:46:00,60.0,60.0,17.72,East,81,0.0,0.0,100,0.00,,,0.00,VWS V14.01,2013-10-19 23:46:00,
2013-10-19 19:50:00,60.0,60.0,17.72,ENE,71,2.7,2.7,100,0.00,,,0.00,VWS V14.01,2013-10-19 23:50:00,
2013-10-19 19:51:00,60.0,60.0,17.72,SE,128,0.0,2.7,100,0.00,,,0.00,VWS V14.01,2013-10-19 23:51:00,
2013-10-19 19:56:00,60.0,60.0,17.72,East,84,2.7,2.7,100,0.00,,,0.00,VWS V14.01,2013-10-19 23:56:00,
2013-10-19 20:00:00,60.0,60.0,17.72,ENE,73,3.1,3.1,100,0.00,,,0.00,VWS V14.01,2013-10-20 00:00:00,
2013-10-19 20:01:00,60.0,60.0,17.72,ENE,67,0.0,3.1,100,0.00,,,0.00,VWS V14.01,2013-10-20 00:01:00,
2013-10-19 20:06:00,60.2,60.2,17.72,NNE,33,0.0,3.1,100,0.00,,,0.00,VWS V14.01,2013-10-20 00:06:00,
2013-10-19 20:10:00,60.2,60.2,17.72,NE,40,0.0,3.1,100,0.00,,,0.00,VWS V14.01,2013-10-20 00:10:00,
2013-10-19 20:11:00,60.2,60.2,17.72,ENE,60,0.0,0.0,100,0.00,,,0.00,VWS V14.01,2013-10-20 00:11:00,
2013-10-19 20:16:00,60.2,60.2,17.72,ENE,73,0.0,0.0,100,0.00,,,0.00,VWS V14.01,2013-10-20 00:16:00,
2013-10-19 20:20:00,60.2,60.2,17.72,East,89,2.7,4.0,100,0.00,,,0.00,VWS V14.01,2013-10-20 00:20:00,
2013-10-19 20:21:00,60.2,60.2,17.72,WSW,256,2.2,2.7,100,0.00,,,0.00,VWS V14.01,2013-10-20 00:21:00,
2013-10-19 20:26:00,60.3,60.3,17.72,SSE,156,0.0,2.7,100,0.00,,,0.00,VWS V14.01,2013-10-20 00:26:00,
2013-10-19 20:31:00,60.3,60.3,17.72,NE,53,0.0,0.0,100,0.00,,,0.00,VWS V14.01,2013-10-20 00:31:00,
2013-10-19 20:36:00,60.3,60.3,17.72,ENE,66,0.0,4.9,100,0.00,,,0.00,VWS V14.01,2013-10-20 00:36:00,
2013-10-19 20:40:00,60.3,60.3,17.72,ENE,62,4.0,4.9,100,0.00,,,0.00,VWS V14.01,2013-10-20 00:40:00,
2013-10-19 20:41:00,60.3,60.3,17.72,East,84,2.2,4.0,100,0.00,,,0.00,VWS V14.01,2013-10-20 00:41:00,
2013-10-19 20:47:00,60.3,60.3,17.72,East,84,0.0,4.0,100,0.00,,,0.00,VWS V14.01,2013-10-20 00:47:00,
2013-10-19 20:50:00,60.3,60.3,17.72,East,84,0.0,4.0,100,0.00,,,0.00,VWS V14.01,2013-10-20 00:50:00,
2013-10-19 20:52:00,60.3,60.3,17.72,East,84,0.0,0.0,100,0.00,,,0.00,VWS V14.01,2013-10-20 00:52:00,
2013-10-19 20:57:00,60.3,60.3,17.72,East,84,3.6,3.6,100,0.00,,,0.00,VWS V14.01,2013-10-20 00:57:00,
2013-10-19 21:02:00,60.2,60.2,17.72,East,79,2.2,2.7,100,0.00,,,0.00,VWS V14.01,2013-10-20 01:02:00,
2013-10-19 21:07:00,60.2,60.2,17.72,East,81,2.2,2.7,100,0.00,,,0.00,VWS V14.01,2013-10-20 01:07:00,
2013-10-19 21:12:00,60.0,60.0,17.72,East,81,0.0,0.0,100,0.00,,,0.00,VWS V14.01,2013-10-20 01:12:00,
2013-10-19 21:17:00,59.8,59.8,17.72,East,81,0.0,0.0,100,0.00,,,0.00,VWS V14.01,2013-10-20 01:17:00,
2013-10-19 21:20:00,59.8,59.8,17.72,East,81,0.0,0.0,100,0.00,,,0.00,VWS V14.01,2013-10-20 01:20:00,
2013-10-19 21:22:00,59.8,59.8,17.72,East,81,0.0,0.0,100,0.00,,,0.00,VWS V14.01,2013-10-20 01:22:00,
2013-10-19 21:27:00,59.6,59.6,17.72,East,81,0.0,0.0,100,0.00,,,0.00,VWS V14.01,2013-10-20 01:27:00,
2013-10-19 21:30:00,59.6,59.6,17.72,East,81,0.0,0.0,100,0.00,,,0.00,VWS V14.01,2013-10-20 01:30:00,
2013-10-19 21:32:00,59.6,59.6,17.72,East,81,0.0,0.0,100,0.00,,,0.00,VWS V14.01,2013-10-20 01:32:00,
2013-10-19 21:37:00,59.4,59.4,17.72,East,81,0.0,0.0,100,0.00,,,0.00,VWS V14.01,2013-10-20 01:37:00,
2013-10-19 21:40:00,59.4,59.4,17.72,East,81,0.0,0.0,100,0.00,,,0.00,VWS V14.01,2013-10-20 01:40:00,
2013-10-19 21:42:00,59.1,59.1,17.72,East,81,0.0,0.0,100,0.00,,,0.00,VWS V14.01,2013-10-20 01:42:00,
2013-10-19 21:47:00,59.1,59.1,17.72,East,81,0.0,0.0,100,0.00,,,0.00,VWS V14.01,2013-10-20 01:47:00,
2013-10-19 21:49:00,59.1,59.1,17.72,East,81,0.0,0.0,100,0.00,,,0.00,VWS V14.01,2013-10-20 01:49:00,
2013-10-19 21:52:00,58.4,58.4,17.72,East,81,0.0,0.0,100,0.00,,,0.00,VWS V14.01,2013-10-20 01:52:00,
2013-10-19 21:57:00,58.4,58.4,17.72,East,81,0.0,0.0,100,0.00,,,0.00,VWS V14.01,2013-10-20 01:57:00,
2013-10-19 22:00:00,58.0,58.0,17.72,East,81,0.0,0.0,100,0.00,,,0.00,VWS V14.01,2013-10-20 02:00:00,
2013-10-19 22:02:00,58.0,58.0,17.72,East,81,0.0,0.0,100,0.00,,,0.00,VWS V14.01,2013-10-20 02:02:00,
2013-10-19 22:07:00,58.0,58.0,17.72,East,81,0.0,0.0,100,0.00,,,0.00,VWS V14.01,2013-10-20 02:07:00,
2013-10-19 22:10:00,57.3,57.3,17.72,East,81,0.0,0.0,100,0.00,,,0.00,VWS V14.01,2013-10-20 02:10:00,
2013-10-19 22:12:00,57.3,57.3,17.72,East,81,0.0,0.0,100,0.00,,,0.00,VWS V14.01,2013-10-20 02:12:00,
2013-10-19 22:17:00,56.7,56.7,17.72,East,81,0.0,0.0,100,0.00,,,0.00,VWS V14.01,2013-10-20 02:17:00,
2013-10-19 22:20:00,56.6,56.6,17.72,East,81,0.0,0.0,100,0.00,,,0.00,VWS V14.01,2013-10-20 02:20:00,
2013-10-19 22:22:00,56.4,56.4,17.72,East,81,0.0,0.0,100,0.00,,,0.00,VWS V14.01,2013-10-20 02:22:00,
2013-10-19 22:27:00,56.4,56.4,17.72,East,81,0.0,0.0,100,0.00,,,0.00,VWS V14.01,2013-10-20 02:27:00,
2013-10-19 22:30:00,56.0,56.0,17.72,East,81,0.0,0.0,100,0.00,,,0.00,VWS V14.01,2013-10-20 02:30:00,
2013-10-19 22:32:00,56.0,56.0,17.72,East,81,0.0,0.0,100,0.00,,,0.00,VWS V14.01,2013-10-20 02:32:00,
2013-10-19 22:37:00,55.8,55.8,17.72,East,81,0.0,0.0,100,0.00,,,0.00,VWS V14.01,2013-10-20 02:37:00,
2013-10-19 22:40:00,55.8,55.8,17.72,East,81,0.0,0.0,100,0.00,,,0.00,VWS V14.01,2013-10-20 02:40:00,
2013-10-19 22:47:00,55.7,55.7,17.72,East,81,0.0,0.0,100,0.00,,,0.00,VWS V14.01,2013-10-20 02:47:00,
2013-10-19 22:52:00,55.7,55.7,17.72,East,81,0.0,0.0,100,0.00,,,0.00,VWS V14.01,2013-10-20 02:52:00,
2013-10-19 22:57:00,55.7,55.7,17.72,East,81,0.0,0.0,100,0.00,,,0.00,VWS V14.01,2013-10-20 02:57:00,
2013-10-19 23:00:00,55.8,55.8,17.72,East,81,0.0,0.0,100,0.00,,,0.00,VWS V14.01,2013-10-20 03:00:00,
2013-10-19 23:07:00,55.8,55.8,17.72,East,81,0.0,0.0,100,0.00,,,0.00,VWS V14.01,2013-10-20 03:07:00,
2013-10-19 23:10:00,55.7,55.7,17.72,East,81,0.0,0.0,100,0.00,,,0.00,VWS V14.01,2013-10-20 03:10:00,
2013-10-19 23:12:00,55.7,55.7,17.72,East,81,0.0,0.0,100,0.00,,,0.00,VWS V14.01,2013-10-20 03:12:00,
2013-10-19 23:17:00,55.7,55.7,17.72,East,81,0.0,0.0,100,0.00,,,0.00,VWS V14.01,2013-10-20 03:17:00,
2013-10-19 23:20:00,55.7,55.7,17.72,East,81,0.0,0.0,100,0.00,,,0.00,VWS V14.01,2013-10-20 03:20:00,
2013-10-19 23:22:00,55.7,55.7,17.72,East,81,0.0,0.0,100,0.00,,,0.00,VWS V14.01,2013-10-20 03:22:00,
2013-10-19 23:27:00,55.7,55.7,17.72,East,81,0.0,0.0,100,0.00,,,0.00,VWS V14.01,2013-10-20 03:27:00,
2013-10-19 23:30:00,55.7,55.7,17.72,East,81,0.0,0.0,100,0.00,,,0.00,VWS V14.01,2013-10-20 03:30:00,
2013-10-19 23:37:00,55.7,55.7,17.72,East,81,0.0,0.0,100,0.00,,,0.00,VWS V14.01,2013-10-20 03:37:00,
2013-10-19 23:40:00,55.7,55.7,17.72,East,81,0.0,0.0,100,0.00,,,0.00,VWS V14.01,2013-10-20 03:40:00,
2013-10-19 23:42:00,55.7,55.7,17.72,East,81,0.0,0.0,100,0.00,,,0.00,VWS V14.01,2013-10-20 03:42:00,
2013-10-19 23:47:00,55.5,55.5,17.72,East,81,0.0,0.0,100,0.00,,,0.00,VWS V14.01,2013-10-20 03:47:00,
2013-10-19 23:50:00,55.5,55.5,17.72,East,81,0.0,0.0,100,0.00,,,0.00,VWS V14.01,2013-10-20 03:50:00,
2013-10-19 23:52:00,55.1,55.1,17.72,East,81,0.0,0.0,100,0.00,,,0.00,VWS V14.01,2013-10-20 03:52:00,
2013-10-19 23:57:00,55.1,55.1,17.72,East,81,0.0,0.0,100,0.00,,,0.00,VWS V14.01,2013-10-20 03:57:00,